Location: 22
(39.7117°N, 89.5929°W)
Time: 09:03:48
(UTC-05:00)

Transit 2A - Pass Details

Date: 08 August 2024
Orbit: 590 x 961 km, 66.7° (Epoch: 13 September)

Event Time Altitude Azimuth Distance (km) Brightness Sun altitude
Rises 13:33:35 0° 331° (NNW) 3,647 9.3 65.3°
Reaches altitude 10° 13:36:10 10° 332° (NNW) 2,702 8.8 65.1°
Maximum altitude 13:42:35 85° 60° (ENE) 956 7.8 64.7°
Drops below altitude 10° 13:48:42 10° 150° (SSE) 2,585 9.1 64.2°
Sets 13:51:08 0° 151° (SSE) 3,480 9.6 64.0°
